Location: Unspecified
(42.3650°N, 71.1030°W)
Time: 15:43:28
(UTC+00:00)

Tiros 1 - Pass Details

Date: 04 July 2024
Orbit: 624 x 656 km, 48.4° (Epoch: 13 July)

Event Time Altitude Azimuth Distance (km) Brightness Sun altitude
Rises 01:30:35 0° 259° (W) 2,903 11.0 -10.4°
Reaches altitude 10° 01:32:57 10° 264° (W) 1,995 10.2 -10.7°
Maximum altitude 01:37:27 54° 342° (NNW) 756 7.9 -11.3°
Drops below altitude 10° 01:41:57 10° 60° (ENE) 1,997 9.5 -11.8°
Sets 01:44:19 0° 65° (ENE) 2,906 10.3 -12.1°
